This is the latest recevied weather packets stored in our database for station/object N5YHM-13. If no packets are shown the sender has not sent any weather packets the latest 10 day(s).
| Time | Temp. | Humidity | Pressure | Rain* | Wind** | Luminosity | Snow |
|---|---|---|---|---|---|---|---|
| 1787932122 | 29.44° C | 81% | 1019 hPa | 0 mm | - | 137 W/m² | - |
| 1787931821 | 29.44° C | 82% | 1018.9 hPa | 0 mm | - | 15 W/m² | - |
| 1787931521 | 29.44° C | 82% | 1018.8 hPa | 0 mm | - | 27 W/m² | - |
| 1787931220 | 29.44° C | 84% | 1018.8 hPa | 0 mm | - | 19 W/m² | - |
| 1787930920 | 29.44° C | 85% | 1018.9 hPa | 1.78 mm | - | 11 W/m² | - |
| 1787930619 | 29.44° C | 85% | 1018.7 hPa | 1.78 mm | - | 17 W/m² | - |
| 1787930314 | 28.89° C | 85% | 1018.7 hPa | 0 mm | - | 13 W/m² | - |
| 1787930009 | 28.89° C | 86% | 1018.8 hPa | 0 mm | - | 11 W/m² | - |
| 1787929707 | 28.89° C | 85% | 1018.8 hPa | 0 mm | - | 10 W/m² | - |
| 1787929403 | 28.33° C | 87% | 1018.8 hPa | 0 mm | - | 10 W/m² | - |
| 1787929100 | 28.33° C | 88% | 1018.9 hPa | 0 mm | - | 11 W/m² | - |
| 1787928796 | 28.33° C | 87% | 1018.8 hPa | 0 mm | - | 11 W/m² | - |
| 1787928495 | 28.33° C | 88% | 1018.7 hPa | 0 mm | - | 9 W/m² | - |
| 1787928195 | 28.33° C | 87% | 1018.7 hPa | 0 mm | - | 9 W/m² | - |
| 1787927894 | 28.33° C | 87% | 1018.9 hPa | 0 mm | - | 127 W/m² | - |
| 1787927588 | 27.78° C | 88% | 1018.7 hPa | 0 mm | - | 20 W/m² | - |
| 1787927283 | 27.78° C | 89% | 1018.7 hPa | 0 mm | - | 42 W/m² | - |
| 1787926979 | 27.78° C | 91% | 1018.8 hPa | 0 mm | - | 18 W/m² | - |
| 1787926679 | 27.22° C | 92% | 1018.5 hPa | 0 mm | - | 9 W/m² | - |
| 1787926377 | 27.22° C | 92% | 1018.7 hPa | 0 mm | - | 60 W/m² | - |
| 1787926072 | 26.67° C | 92% | 1018.8 hPa | 0 mm | - | 55 W/m² | - |
| 1787925772 | 26.67° C | 94% | 1018.7 hPa | 0 mm | - | 11 W/m² | - |
| 1787925470 | 26.67° C | 95% | 1018.7 hPa | 0 mm | - | 62 W/m² | - |
| 1787925166 | 26.11° C | 96% | 1018.7 hPa | 0 mm | - | 11 W/m² | - |
| 1787924864 | 26.11° C | 96% | 1018.5 hPa | 0 mm | - | 7 W/m² | - |
* Rain latest hour (hover to see other rain measurements)
** Current wind speed in m/s (hover to see current wind gust speed)